Time,TemperatureF,DewpointF,PressureIn,WindDirection,WindDirectionDegrees,WindSpeedMPH,WindSpeedGustMPH,Humidity,HourlyPrecipIn,Conditions,Clouds,dailyrainin,SoftwareType,DateUTC
2013-08-28 00:00:00,71.3,70.4,29.99,WSW,246,0.0,0.0,97,0.00,,,0.00,Wunderground v.1.15,2013-08-28 04:00:00,
2013-08-28 00:05:00,71.3,70.4,29.99,WSW,246,0.0,0.0,97,0.00,,,0.00,Wunderground v.1.15,2013-08-28 04:05:00,
2013-08-28 00:10:00,71.3,70.7,29.99,WSW,246,0.0,0.0,98,0.00,,,0.00,Wunderground v.1.15,2013-08-28 04:10:00,
2013-08-28 00:15:00,71.3,70.7,29.99,WSW,246,0.0,0.0,98,0.00,,,0.00,Wunderground v.1.15,2013-08-28 04:15:00,
2013-08-28 00:20:00,71.2,70.6,29.99,WSW,246,0.0,0.0,98,0.00,,,0.00,Wunderground v.1.15,2013-08-28 04:20:00,
2013-08-28 00:25:00,71.1,70.5,29.98,WSW,246,0.0,0.0,98,0.00,,,0.00,Wunderground v.1.15,2013-08-28 04:25:00,
2013-08-28 00:30:00,71.1,70.5,29.98,WSW,246,0.0,0.0,98,0.00,,,0.00,Wunderground v.1.15,2013-08-28 04:30:00,
2013-08-28 00:40:00,71.0,70.4,29.97,WSW,246,0.0,0.0,98,0.00,,,0.00,Wunderground v.1.15,2013-08-28 04:40:00,
2013-08-28 00:45:00,70.9,70.3,29.97,WSW,246,0.0,0.0,98,0.00,,,0.00,Wunderground v.1.15,2013-08-28 04:45:00,
2013-08-28 00:50:00,70.8,70.2,29.98,WSW,246,0.0,0.0,98,0.00,,,0.00,Wunderground v.1.15,2013-08-28 04:50:00,
2013-08-28 01:00:00,70.7,70.1,29.97,WSW,246,0.0,0.0,98,0.00,,,0.00,Wunderground v.1.15,2013-08-28 05:00:00,
2013-08-28 01:05:00,70.6,70.0,29.97,WSW,246,0.0,0.0,98,0.00,,,0.00,Wunderground v.1.15,2013-08-28 05:05:00,
2013-08-28 01:15:00,70.5,69.9,29.97,WSW,246,0.0,0.0,98,0.00,,,0.00,Wunderground v.1.15,2013-08-28 05:15:00,
2013-08-28 01:20:00,70.4,69.8,29.97,WSW,246,0.0,0.0,98,0.00,,,0.00,Wunderground v.1.15,2013-08-28 05:20:00,
2013-08-28 01:25:00,70.4,69.8,29.97,WSW,246,0.0,0.0,98,0.00,,,0.00,Wunderground v.1.15,2013-08-28 05:25:00,
2013-08-28 01:30:00,70.4,69.8,29.97,WSW,246,0.0,0.0,98,0.00,,,0.00,Wunderground v.1.15,2013-08-28 05:30:00,
2013-08-28 01:35:00,70.3,69.7,29.97,WSW,246,0.0,0.0,98,0.00,,,0.00,Wunderground v.1.15,2013-08-28 05:35:00,
2013-08-28 01:45:00,70.1,69.5,29.96,WSW,246,0.0,0.0,98,0.00,,,0.00,Wunderground v.1.15,2013-08-28 05:45:00,
2013-08-28 01:50:00,70.1,69.5,29.97,WSW,246,0.0,0.0,98,0.00,,,0.00,Wunderground v.1.15,2013-08-28 05:50:00,
2013-08-28 01:55:00,70.0,69.4,29.96,WSW,246,0.0,0.0,98,0.00,,,0.00,Wunderground v.1.15,2013-08-28 05:55:00,
2013-08-28 02:00:00,70.0,69.4,29.96,WSW,246,0.0,0.0,98,0.00,,,0.00,Wunderground v.1.15,2013-08-28 06:00:00,
2013-08-28 02:05:00,70.0,69.4,29.96,WSW,246,0.0,0.0,98,0.00,,,0.00,Wunderground v.1.15,2013-08-28 06:05:00,
2013-08-28 02:15:00,70.0,69.7,29.96,WSW,246,0.0,0.0,99,0.00,,,0.00,Wunderground v.1.15,2013-08-28 06:15:00,
2013-08-28 02:20:00,70.0,69.7,29.96,WSW,246,0.0,0.0,99,0.00,,,0.00,Wunderground v.1.15,2013-08-28 06:20:00,
2013-08-28 02:30:00,69.9,69.6,29.96,WSW,246,0.0,0.0,99,0.00,,,0.00,Wunderground v.1.15,2013-08-28 06:30:00,
2013-08-28 02:35:00,69.8,69.5,29.96,WSW,246,0.0,0.0,99,0.00,,,0.00,Wunderground v.1.15,2013-08-28 06:35:00,
2013-08-28 02:40:00,69.7,69.1,29.95,WSW,246,0.0,0.0,98,0.00,,,0.00,Wunderground v.1.15,2013-08-28 06:40:00,
2013-08-28 02:45:00,69.7,69.1,29.95,WSW,246,0.0,0.0,98,0.00,,,0.00,Wunderground v.1.15,2013-08-28 06:45:00,
2013-08-28 02:50:00,69.6,69.3,29.95,WSW,246,0.0,0.0,99,0.00,,,0.00,Wunderground v.1.15,2013-08-28 06:50:00,
2013-08-28 02:55:00,69.6,69.3,29.95,WSW,246,0.0,0.0,99,0.00,,,0.00,Wunderground v.1.15,2013-08-28 06:55:00,
2013-08-28 03:05:00,69.4,69.1,29.95,WSW,246,0.0,0.0,99,0.00,,,0.00,Wunderground v.1.15,2013-08-28 07:05:00,
2013-08-28 03:15:00,69.3,69.0,29.95,WSW,246,0.0,0.0,99,0.00,,,0.00,Wunderground v.1.15,2013-08-28 07:15:00,
2013-08-28 03:20:00,69.2,68.9,29.94,WSW,246,0.0,0.0,99,0.00,,,0.00,Wunderground v.1.15,2013-08-28 07:20:00,
2013-08-28 03:25:00,69.2,68.9,29.94,WSW,246,0.0,0.0,99,0.00,,,0.00,Wunderground v.1.15,2013-08-28 07:25:00,
2013-08-28 03:30:00,69.1,68.8,29.95,WSW,246,0.0,0.0,99,0.00,,,0.00,Wunderground v.1.15,2013-08-28 07:30:00,
2013-08-28 03:35:00,69.0,68.7,29.94,WSW,246,0.0,0.0,99,0.00,,,0.00,Wunderground v.1.15,2013-08-28 07:35:00,
2013-08-28 03:40:00,68.9,68.6,29.94,WSW,246,0.0,0.0,99,0.00,,,0.00,Wunderground v.1.15,2013-08-28 07:40:00,
2013-08-28 03:50:00,68.8,68.5,29.94,WSW,246,0.0,0.0,99,0.00,,,0.00,Wunderground v.1.15,2013-08-28 07:50:00,
2013-08-28 03:55:00,68.6,68.3,29.94,WSW,246,0.0,0.0,99,0.00,,,0.00,Wunderground v.1.15,2013-08-28 07:55:00,
2013-08-28 04:00:00,68.6,68.3,29.94,WSW,246,0.0,0.0,99,0.00,,,0.00,Wunderground v.1.15,2013-08-28 08:00:00,
2013-08-28 04:05:00,68.6,68.3,29.94,WSW,246,0.0,0.0,99,0.00,,,0.00,Wunderground v.1.15,2013-08-28 08:05:00,
2013-08-28 04:15:00,68.5,68.2,29.94,WSW,246,0.0,0.0,99,0.00,,,0.00,Wunderground v.1.15,2013-08-28 08:15:00,
2013-08-28 04:20:00,68.4,68.1,29.93,WSW,246,0.0,0.0,99,0.00,,,0.00,Wunderground v.1.15,2013-08-28 08:20:00,
2013-08-28 04:25:00,68.4,68.1,29.93,WSW,246,0.0,0.0,99,0.00,,,0.00,Wunderground v.1.15,2013-08-28 08:25:00,
2013-08-28 04:35:00,68.2,67.9,29.93,WSW,246,0.0,0.0,99,0.00,,,0.00,Wunderground v.1.15,2013-08-28 08:35:00,
2013-08-28 04:40:00,68.2,67.9,29.93,WSW,246,0.0,0.0,99,0.00,,,0.00,Wunderground v.1.15,2013-08-28 08:40:00,
2013-08-28 04:45:00,68.2,67.9,29.94,WSW,246,0.0,0.0,99,0.00,,,0.00,Wunderground v.1.15,2013-08-28 08:45:00,
2013-08-28 04:50:00,68.1,67.8,29.94,WSW,246,0.0,0.0,99,0.00,,,0.00,Wunderground v.1.15,2013-08-28 08:50:00,
2013-08-28 04:55:00,68.0,67.7,29.93,WSW,246,0.0,0.0,99,0.00,,,0.00,Wunderground v.1.15,2013-08-28 08:55:00,
2013-08-28 05:00:00,68.0,67.7,29.94,WSW,246,0.0,0.0,99,0.00,,,0.00,Wunderground v.1.15,2013-08-28 09:00:00,
2013-08-28 05:05:00,67.9,67.6,29.94,WSW,246,0.0,0.0,99,0.00,,,0.00,Wunderground v.1.15,2013-08-28 09:05:00,
2013-08-28 05:15:00,67.7,67.4,29.94,WSW,246,0.0,0.0,99,0.00,,,0.00,Wunderground v.1.15,2013-08-28 09:15:00,
2013-08-28 05:25:00,67.6,67.3,29.94,WSW,246,0.0,0.0,99,0.00,,,0.00,Wunderground v.1.15,2013-08-28 09:25:00,
2013-08-28 05:30:00,67.6,67.3,29.94,WSW,246,0.0,0.0,99,0.00,,,0.00,Wunderground v.1.15,2013-08-28 09:30:00,
2013-08-28 05:35:00,67.5,67.2,29.94,WSW,246,0.0,0.0,99,0.00,,,0.00,Wunderground v.1.15,2013-08-28 09:35:00,
2013-08-28 05:40:00,67.5,67.2,29.94,WSW,246,0.0,0.0,99,0.00,,,0.00,Wunderground v.1.15,2013-08-28 09:40:00,
2013-08-28 05:45:00,67.4,67.1,29.94,WSW,246,0.0,0.0,99,0.00,,,0.00,Wunderground v.1.15,2013-08-28 09:45:00,
2013-08-28 05:50:00,67.3,67.0,29.94,WSW,246,0.0,0.0,99,0.00,,,0.00,Wunderground v.1.15,2013-08-28 09:50:00,
2013-08-28 06:00:00,67.2,66.9,29.94,WSW,246,0.0,0.0,99,0.00,,,0.00,Wunderground v.1.15,2013-08-28 10:00:00,
2013-08-28 06:05:00,67.2,66.9,29.94,WSW,246,0.0,0.0,99,0.00,,,0.00,Wunderground v.1.15,2013-08-28 10:05:00,
2013-08-28 06:10:00,67.2,66.9,29.94,WSW,246,0.0,0.0,99,0.00,,,0.00,Wunderground v.1.15,2013-08-28 10:10:00,
2013-08-28 06:15:00,67.2,66.9,29.94,WSW,246,0.0,0.0,99,0.00,,,0.00,Wunderground v.1.15,2013-08-28 10:15:00,
2013-08-28 06:20:00,67.2,66.9,29.94,WSW,246,0.0,0.0,99,0.00,,,0.00,Wunderground v.1.15,2013-08-28 10:20:00,
2013-08-28 06:25:00,67.1,66.8,29.95,WSW,246,0.0,0.0,99,0.00,,,0.00,Wunderground v.1.15,2013-08-28 10:25:00,
2013-08-28 06:30:00,67.1,66.8,29.95,WSW,246,0.0,0.0,99,0.00,,,0.00,Wunderground v.1.15,2013-08-28 10:30:00,
2013-08-28 06:35:00,67.0,66.7,29.95,WSW,246,0.0,0.0,99,0.00,,,0.00,Wunderground v.1.15,2013-08-28 10:35:00,
2013-08-28 06:45:00,67.0,66.7,29.95,WSW,246,0.0,0.0,99,0.00,,,0.00,Wunderground v.1.15,2013-08-28 10:45:00,
2013-08-28 06:50:00,67.0,66.7,29.95,WSW,246,0.0,0.0,99,0.00,,,0.00,Wunderground v.1.15,2013-08-28 10:50:00,
2013-08-28 06:55:00,67.3,67.0,29.95,WSW,246,0.0,0.0,99,0.00,,,0.00,Wunderground v.1.15,2013-08-28 10:55:00,
2013-08-28 07:00:00,67.4,67.4,29.95,WSW,246,0.0,0.0,100,0.00,,,0.00,Wunderground v.1.15,2013-08-28 11:00:00,
2013-08-28 07:06:00,67.6,67.6,29.96,WSW,246,0.0,0.0,100,0.00,,,0.00,Wunderground v.1.15,2013-08-28 11:06:00,
2013-08-28 07:15:00,67.8,67.8,29.96,WSW,246,0.0,0.0,100,0.00,,,0.00,Wunderground v.1.15,2013-08-28 11:15:00,
2013-08-28 07:20:00,67.9,67.9,29.96,WSW,246,0.0,0.0,100,0.00,,,0.00,Wunderground v.1.15,2013-08-28 11:20:00,
2013-08-28 07:25:00,68.0,68.0,29.96,WSW,246,0.0,0.0,100,0.00,,,0.00,Wunderground v.1.15,2013-08-28 11:25:00,
2013-08-28 07:35:00,68.3,68.3,29.96,WSW,246,0.0,0.0,100,0.00,,,0.00,Wunderground v.1.15,2013-08-28 11:35:00,
2013-08-28 07:40:00,68.5,68.5,29.96,WSW,246,0.0,0.0,100,0.00,,,0.00,Wunderground v.1.15,2013-08-28 11:40:00,
2013-08-28 07:45:00,68.7,68.7,29.97,WSW,246,0.0,0.0,100,0.00,,,0.00,Wunderground v.1.15,2013-08-28 11:45:00,
2013-08-28 07:50:00,69.0,69.0,29.97,WSW,246,0.0,0.0,100,0.00,,,0.00,Wunderground v.1.15,2013-08-28 11:50:00,
2013-08-28 08:00:00,69.7,69.7,29.97,WSW,246,0.0,0.0,100,0.00,,,0.00,Wunderground v.1.15,2013-08-28 12:00:00,
2013-08-28 08:05:00,70.1,70.1,29.96,WSW,246,0.0,0.0,100,0.00,,,0.00,Wunderground v.1.15,2013-08-28 12:05:00,
2013-08-28 08:15:00,70.9,70.9,29.96,WSW,246,0.0,0.0,100,0.00,,,0.00,Wunderground v.1.15,2013-08-28 12:15:00,
2013-08-28 08:20:00,71.3,71.3,29.96,WSW,246,0.0,0.0,100,0.00,,,0.00,Wunderground v.1.15,2013-08-28 12:20:00,
2013-08-28 08:25:00,71.5,71.5,29.96,WSW,246,0.0,0.0,100,0.00,,,0.00,Wunderground v.1.15,2013-08-28 12:25:00,
2013-08-28 08:30:00,71.8,71.8,29.96,WSW,246,0.0,0.0,100,0.00,,,0.00,Wunderground v.1.15,2013-08-28 12:30:00,
2013-08-28 08:36:00,72.1,72.1,29.96,WSW,246,0.0,0.0,100,0.00,,,0.00,Wunderground v.1.15,2013-08-28 12:36:00,
2013-08-28 09:01:00,72.9,72.9,29.96,WSW,246,0.0,0.0,100,0.00,,,0.00,Wunderground v.1.15,2013-08-28 13:01:00,
2013-08-28 09:10:00,73.3,73.3,29.96,WSW,246,0.0,0.0,100,0.00,,,0.00,Wunderground v.1.15,2013-08-28 13:10:00,
2013-08-28 09:15:00,73.5,73.5,29.96,SW,226,0.0,0.0,100,0.00,,,0.00,Wunderground v.1.15,2013-08-28 13:15:00,
2013-08-28 09:20:00,73.7,73.7,29.96,SW,226,0.0,0.0,100,0.00,,,0.00,Wunderground v.1.15,2013-08-28 13:20:00,
2013-08-28 09:30:00,73.9,73.9,29.96,SW,226,0.0,0.0,100,0.00,,,0.00,Wunderground v.1.15,2013-08-28 13:30:00,
2013-08-28 09:36:00,74.1,74.1,29.96,SW,226,0.0,0.0,100,0.00,,,0.00,Wunderground v.1.15,2013-08-28 13:36:00,
2013-08-28 10:01:00,75.2,74.9,29.97,SW,226,0.0,0.0,99,0.00,,,0.00,Wunderground v.1.15,2013-08-28 14:01:00,
2013-08-28 10:10:00,75.7,75.1,29.98,SW,226,0.0,0.0,98,0.00,,,0.00,Wunderground v.1.15,2013-08-28 14:10:00,
2013-08-28 10:15:00,75.8,75.2,29.98,SW,226,0.0,0.0,98,0.00,,,0.00,Wunderground v.1.15,2013-08-28 14:15:00,
2013-08-28 10:21:00,76.0,75.1,29.98,SW,226,0.0,0.0,97,0.00,,,0.00,Wunderground v.1.15,2013-08-28 14:21:00,
2013-08-28 10:30:00,76.4,74.9,29.98,SW,226,0.0,0.0,95,0.00,,,0.00,Wunderground v.1.15,2013-08-28 14:30:00,
2013-08-28 10:45:00,77.4,75.5,29.98,SW,226,0.0,0.0,94,0.00,,,0.00,Wunderground v.1.15,2013-08-28 14:45:00,
2013-08-28 10:55:00,78.1,75.6,29.98,SW,226,0.0,0.0,92,0.00,,,0.00,Wunderground v.1.15,2013-08-28 14:55:00,
2013-08-28 11:01:00,78.4,75.6,29.98,SW,226,0.0,0.0,91,0.00,,,0.00,Wunderground v.1.15,2013-08-28 15:01:00,
2013-08-28 11:11:00,78.7,75.5,29.98,SW,226,0.0,0.0,90,0.00,,,0.00,Wunderground v.1.15,2013-08-28 15:11:00,
2013-08-28 11:20:00,79.4,75.9,29.98,SSW,207,0.0,0.0,89,0.00,,,0.00,Wunderground v.1.15,2013-08-28 15:20:00,
2013-08-28 11:30:00,80.1,75.9,29.98,SSW,209,0.0,0.0,87,0.00,,,0.00,Wunderground v.1.15,2013-08-28 15:30:00,
2013-08-28 11:35:00,80.5,75.9,29.98,SW,232,0.0,0.0,86,0.00,,,0.00,Wunderground v.1.15,2013-08-28 15:35:00,
2013-08-28 11:50:00,80.8,75.2,29.98,South,178,0.0,0.0,83,0.00,,,0.00,Wunderground v.1.15,2013-08-28 15:50:00,
2013-08-28 12:00:00,80.8,75.5,29.98,South,176,0.0,0.0,84,0.00,,,0.00,Wunderground v.1.15,2013-08-28 16:00:00,
2013-08-28 12:20:00,80.9,75.6,29.98,NW,306,0.0,0.0,84,0.00,,,0.00,Wunderground v.1.15,2013-08-28 16:20:00,
2013-08-28 12:26:00,80.9,75.6,29.97,NNW,333,0.0,1.0,84,0.00,,,0.00,Wunderground v.1.15,2013-08-28 16:26:00,
2013-08-28 12:35:00,80.8,75.5,29.97,SSW,211,0.0,0.0,84,0.00,,,0.00,Wunderground v.1.15,2013-08-28 16:35:00,
2013-08-28 13:01:00,81.0,76.1,29.96,North,355,0.0,0.0,85,0.00,,,0.00,Wunderground v.1.15,2013-08-28 17:01:00,
2013-08-28 13:10:00,80.9,76.7,29.97,North,355,0.0,0.0,87,0.00,,,0.00,Wunderground v.1.15,2013-08-28 17:10:00,
2013-08-28 13:20:00,80.8,76.2,29.97,NNW,348,0.0,0.0,86,0.00,,,0.00,Wunderground v.1.15,2013-08-28 17:20:00,
2013-08-28 13:30:00,80.6,76.4,29.97,NNW,348,0.0,0.0,87,0.00,,,0.00,Wunderground v.1.15,2013-08-28 17:30:00,
2013-08-28 13:35:00,80.6,76.4,29.97,NNW,348,0.0,0.0,87,0.00,,,0.00,Wunderground v.1.15,2013-08-28 17:35:00,
2013-08-28 13:40:00,80.6,76.4,29.96,NNW,348,0.0,0.0,87,0.00,,,0.00,Wunderground v.1.15,2013-08-28 17:40:00,
2013-08-28 13:50:00,80.6,77.1,29.96,NNW,348,0.0,0.0,89,0.00,,,0.00,Wunderground v.1.15,2013-08-28 17:50:00,
2013-08-28 13:55:00,80.6,76.7,29.96,NNW,348,0.0,0.0,88,0.00,,,0.00,Wunderground v.1.15,2013-08-28 17:55:00,
2013-08-28 14:00:00,80.5,76.6,29.95,NNW,348,0.0,0.0,88,0.00,,,0.00,Wunderground v.1.15,2013-08-28 18:00:00,
2013-08-28 14:05:00,80.3,76.1,29.95,NNW,348,0.0,0.0,87,0.00,,,0.00,Wunderground v.1.15,2013-08-28 18:05:00,
2013-08-28 14:15:00,80.1,76.6,29.95,North,351,0.0,0.0,89,0.00,,,0.00,Wunderground v.1.15,2013-08-28 18:15:00,
2013-08-28 14:20:00,80.0,76.8,29.94,North,351,0.0,0.0,90,0.00,,,0.00,Wunderground v.1.15,2013-08-28 18:20:00,
2013-08-28 14:25:00,80.0,77.1,29.94,North,351,0.0,0.0,91,0.00,,,0.00,Wunderground v.1.15,2013-08-28 18:25:00,
2013-08-28 14:30:00,80.0,77.5,29.94,North,351,0.0,0.0,92,0.00,,,0.00,Wunderground v.1.15,2013-08-28 18:30:00,
2013-08-28 14:40:00,80.2,77.7,29.94,North,351,0.0,0.0,92,0.00,,,0.00,Wunderground v.1.15,2013-08-28 18:40:00,
2013-08-28 14:45:00,80.1,76.9,29.94,North,350,0.0,0.0,90,0.00,,,0.00,Wunderground v.1.15,2013-08-28 18:45:00,
2013-08-28 14:50:00,80.0,76.5,29.94,WNW,292,0.0,0.0,89,0.00,,,0.00,Wunderground v.1.15,2013-08-28 18:50:00,
2013-08-28 14:55:00,79.8,76.3,29.93,WNW,292,0.0,0.0,89,0.00,,,0.00,Wunderground v.1.15,2013-08-28 18:55:00,
2013-08-28 15:00:00,79.9,76.7,29.93,WNW,292,0.0,0.0,90,0.00,,,0.00,Wunderground v.1.15,2013-08-28 19:00:00,
2013-08-28 15:05:00,79.9,76.7,29.93,WNW,292,0.0,0.0,90,0.00,,,0.00,Wunderground v.1.15,2013-08-28 19:05:00,
2013-08-28 15:15:00,80.0,76.8,29.94,WNW,292,0.0,0.0,90,0.00,,,0.00,Wunderground v.1.15,2013-08-28 19:15:00,
2013-08-28 15:25:00,79.9,76.7,29.93,WNW,292,0.0,0.0,90,0.00,,,0.00,Wunderground v.1.15,2013-08-28 19:25:00,
2013-08-28 15:30:00,79.9,76.7,29.93,WNW,292,0.0,0.0,90,0.00,,,0.00,Wunderground v.1.15,2013-08-28 19:30:00,
2013-08-28 15:35:00,79.9,76.7,29.93,WNW,292,0.0,0.0,90,0.00,,,0.00,Wunderground v.1.15,2013-08-28 19:35:00,
2013-08-28 15:40:00,80.0,76.8,29.93,WNW,292,0.0,0.0,90,0.00,,,0.00,Wunderground v.1.15,2013-08-28 19:40:00,
2013-08-28 15:45:00,79.9,76.4,29.94,West,274,0.0,0.0,89,0.00,,,0.00,Wunderground v.1.15,2013-08-28 19:45:00,
2013-08-28 15:50:00,80.0,76.5,29.93,West,274,0.0,0.0,89,0.00,,,0.00,Wunderground v.1.15,2013-08-28 19:50:00,
2013-08-28 16:00:00,79.7,76.5,29.93,West,274,0.0,0.0,90,0.00,,,0.00,Wunderground v.1.15,2013-08-28 20:00:00,
2013-08-28 16:05:00,79.6,77.1,29.93,West,274,0.0,0.0,92,0.00,,,0.01,Wunderground v.1.15,2013-08-28 20:05:00,
2013-08-28 16:15:00,79.2,76.7,29.92,West,274,0.0,0.0,92,0.00,,,0.01,Wunderground v.1.15,2013-08-28 20:15:00,
2013-08-28 16:20:00,78.9,76.7,29.91,West,274,0.0,0.0,93,0.00,,,0.01,Wunderground v.1.15,2013-08-28 20:20:00,
2013-08-28 16:25:00,78.7,76.8,29.91,West,274,0.0,0.0,94,0.00,,,0.01,Wunderground v.1.15,2013-08-28 20:25:00,
2013-08-28 16:30:00,78.7,76.8,29.91,West,274,0.0,0.0,94,0.00,,,0.01,Wunderground v.1.15,2013-08-28 20:30:00,
2013-08-28 16:35:00,78.4,76.8,29.91,West,274,0.0,0.0,95,0.00,,,0.01,Wunderground v.1.15,2013-08-28 20:35:00,
2013-08-28 16:45:00,78.1,76.6,29.91,West,274,0.0,0.0,95,0.00,,,0.01,Wunderground v.1.15,2013-08-28 20:45:00,
2013-08-28 16:50:00,78.0,76.5,29.91,West,274,0.0,0.0,95,0.00,,,0.01,Wunderground v.1.15,2013-08-28 20:50:00,
2013-08-28 16:55:00,77.9,76.7,29.91,West,274,0.0,0.0,96,0.00,,,0.01,Wunderground v.1.15,2013-08-28 20:55:00,
2013-08-28 17:00:00,77.8,76.6,29.90,West,274,0.0,0.0,96,0.00,,,0.01,Wunderground v.1.15,2013-08-28 21:00:00,
2013-08-28 17:06:00,77.7,76.5,29.91,West,274,0.0,0.0,96,0.00,,,0.01,Wunderground v.1.15,2013-08-28 21:06:00,
2013-08-28 17:15:00,77.5,76.3,29.90,West,274,0.0,0.0,96,0.00,,,0.01,Wunderground v.1.15,2013-08-28 21:15:00,
2013-08-28 17:20:00,77.3,76.1,29.90,West,274,0.0,0.0,96,0.00,,,0.01,Wunderground v.1.15,2013-08-28 21:20:00,
2013-08-28 17:25:00,77.3,76.1,29.91,West,274,0.0,0.0,96,0.00,,,0.01,Wunderground v.1.15,2013-08-28 21:25:00,
2013-08-28 17:35:00,77.1,76.2,29.91,West,274,0.0,0.0,97,0.00,,,0.01,Wunderground v.1.15,2013-08-28 21:35:00,
2013-08-28 17:40:00,77.1,76.2,29.91,West,274,0.0,0.0,97,0.00,,,0.01,Wunderground v.1.15,2013-08-28 21:40:00,
2013-08-28 17:45:00,77.1,76.2,29.91,West,274,0.0,0.0,97,0.00,,,0.01,Wunderground v.1.15,2013-08-28 21:45:00,
2013-08-28 17:50:00,77.1,76.2,29.91,West,274,0.0,0.0,97,0.00,,,0.01,Wunderground v.1.15,2013-08-28 21:50:00,
2013-08-28 18:00:00,77.0,76.4,29.90,West,274,0.0,0.0,98,0.00,,,0.01,Wunderground v.1.15,2013-08-28 22:00:00,
2013-08-28 18:05:00,77.0,76.4,29.91,West,274,0.0,0.0,98,0.00,,,0.01,Wunderground v.1.15,2013-08-28 22:05:00,
2013-08-28 18:15:00,76.9,76.3,29.90,West,274,0.0,0.0,98,0.00,,,0.01,Wunderground v.1.15,2013-08-28 22:15:00,
2013-08-28 18:20:00,76.9,76.3,29.90,West,274,0.0,0.0,98,0.00,,,0.01,Wunderground v.1.15,2013-08-28 22:20:00,
2013-08-28 18:25:00,76.9,76.3,29.90,West,274,0.0,0.0,98,0.00,,,0.01,Wunderground v.1.15,2013-08-28 22:25:00,
2013-08-28 18:30:00,77.0,76.4,29.90,West,274,0.0,0.0,98,0.00,,,0.01,Wunderground v.1.15,2013-08-28 22:30:00,
2013-08-28 18:35:00,77.1,76.5,29.90,West,274,0.0,0.0,98,0.00,,,0.01,Wunderground v.1.15,2013-08-28 22:35:00,
2013-08-28 18:40:00,77.2,76.6,29.90,West,274,0.0,0.0,98,0.00,,,0.01,Wunderground v.1.15,2013-08-28 22:40:00,
2013-08-28 18:50:00,77.5,77.2,29.90,West,274,0.0,0.0,99,0.00,,,0.01,Wunderground v.1.15,2013-08-28 22:50:00,
2013-08-28 18:55:00,77.5,77.2,29.90,West,274,0.0,0.0,99,0.00,,,0.02,Wunderground v.1.15,2013-08-28 22:55:00,
2013-08-28 19:00:00,77.5,77.2,29.90,West,274,0.0,0.0,99,0.00,,,0.02,Wunderground v.1.15,2013-08-28 23:00:00,
2013-08-28 19:06:00,77.6,77.3,29.90,West,274,0.0,0.0,99,0.00,,,0.02,Wunderground v.1.15,2013-08-28 23:06:00,
2013-08-28 19:15:00,77.6,77.3,29.90,West,274,0.0,0.0,99,0.00,,,0.02,Wunderground v.1.15,2013-08-28 23:15:00,
2013-08-28 19:20:00,77.5,77.2,29.90,West,274,0.0,0.0,99,0.00,,,0.02,Wunderground v.1.15,2013-08-28 23:20:00,
2013-08-28 19:30:00,77.3,76.7,29.90,West,274,0.0,0.0,98,0.00,,,0.02,Wunderground v.1.15,2013-08-28 23:30:00,
2013-08-28 19:35:00,77.3,77.0,29.90,West,274,0.0,0.0,99,0.00,,,0.02,Wunderground v.1.15,2013-08-28 23:35:00,
2013-08-28 19:40:00,77.2,76.9,29.90,West,274,0.0,0.0,99,0.00,,,0.02,Wunderground v.1.15,2013-08-28 23:40:00,
2013-08-28 19:45:00,77.1,76.8,29.90,West,274,0.0,0.0,99,0.00,,,0.02,Wunderground v.1.15,2013-08-28 23:45:00,
2013-08-28 19:50:00,77.0,76.7,29.90,West,274,0.0,0.0,99,0.00,,,0.02,Wunderground v.1.15,2013-08-28 23:50:00,
2013-08-28 19:55:00,76.9,76.6,29.90,West,274,0.0,0.0,99,0.00,,,0.02,Wunderground v.1.15,2013-08-28 23:55:00,
2013-08-28 20:05:00,76.7,76.4,29.90,West,274,0.0,0.0,99,0.00,,,0.02,Wunderground v.1.15,2013-08-29 00:05:00,
2013-08-28 20:15:00,76.6,76.3,29.89,West,274,0.0,0.0,99,0.00,,,0.02,Wunderground v.1.15,2013-08-29 00:15:00,
2013-08-28 20:20:00,76.5,76.2,29.89,West,274,0.0,0.0,99,0.00,,,0.02,Wunderground v.1.15,2013-08-29 00:20:00,
2013-08-28 20:25:00,76.4,76.1,29.89,West,274,0.0,0.0,99,0.00,,,0.02,Wunderground v.1.15,2013-08-29 00:25:00,
2013-08-28 20:30:00,76.4,76.1,29.89,West,274,0.0,0.0,99,0.00,,,0.02,Wunderground v.1.15,2013-08-29 00:30:00,
2013-08-28 20:35:00,76.3,76.0,29.89,West,274,0.0,0.0,99,0.00,,,0.02,Wunderground v.1.15,2013-08-29 00:35:00,
2013-08-28 20:45:00,76.2,75.9,29.90,West,274,0.0,0.0,99,0.00,,,0.02,Wunderground v.1.15,2013-08-29 00:45:00,
2013-08-28 20:50:00,76.2,75.9,29.89,West,274,0.0,0.0,99,0.00,,,0.02,Wunderground v.1.15,2013-08-29 00:50:00,
2013-08-28 20:55:00,76.1,75.8,29.89,West,274,0.0,0.0,99,0.00,,,0.02,Wunderground v.1.15,2013-08-29 00:55:00,
2013-08-28 21:00:00,76.1,75.8,29.89,West,274,0.0,0.0,99,0.00,,,0.02,Wunderground v.1.15,2013-08-29 01:00:00,
2013-08-28 21:05:00,76.2,75.9,29.89,West,274,0.0,0.0,99,0.00,,,0.02,Wunderground v.1.15,2013-08-29 01:05:00,
2013-08-28 21:15:00,76.3,76.0,29.89,West,274,0.0,0.0,99,0.00,,,0.02,Wunderground v.1.15,2013-08-29 01:15:00,
2013-08-28 21:20:00,76.3,76.0,29.89,West,274,0.0,0.0,99,0.00,,,0.02,Wunderground v.1.15,2013-08-29 01:20:00,
2013-08-28 21:30:00,76.3,76.0,29.90,West,274,0.0,0.0,99,0.00,,,0.02,Wunderground v.1.15,2013-08-29 01:30:00,
2013-08-28 21:35:00,76.3,76.0,29.89,West,274,0.0,0.0,99,0.00,,,0.02,Wunderground v.1.15,2013-08-29 01:35:00,
2013-08-28 21:40:00,76.2,75.9,29.90,West,274,0.0,0.0,99,0.00,,,0.02,Wunderground v.1.15,2013-08-29 01:40:00,
2013-08-28 21:45:00,76.1,75.8,29.90,West,274,0.0,0.0,99,0.00,,,0.02,Wunderground v.1.15,2013-08-29 01:45:00,
2013-08-28 21:50:00,76.1,75.8,29.89,West,273,0.0,0.0,99,0.00,,,0.02,Wunderground v.1.15,2013-08-29 01:50:00,
2013-08-28 22:00:00,76.1,75.8,29.90,West,273,0.0,0.0,99,0.00,,,0.02,Wunderground v.1.15,2013-08-29 02:00:00,
2013-08-28 22:05:00,76.1,75.8,29.90,West,273,0.0,0.0,99,0.00,,,0.02,Wunderground v.1.15,2013-08-29 02:05:00,
2013-08-28 22:15:00,76.0,75.7,29.89,West,273,0.0,0.0,99,0.00,,,0.02,Wunderground v.1.15,2013-08-29 02:15:00,
2013-08-28 22:20:00,76.0,75.7,29.89,West,273,0.0,0.0,99,0.00,,,0.02,Wunderground v.1.15,2013-08-29 02:20:00,
2013-08-28 22:25:00,76.0,76.0,29.89,West,273,0.0,0.0,100,0.00,,,0.02,Wunderground v.1.15,2013-08-29 02:25:00,
2013-08-28 22:30:00,75.9,75.9,29.89,West,273,0.0,0.0,100,0.00,,,0.02,Wunderground v.1.15,2013-08-29 02:30:00,
2013-08-28 22:35:00,75.9,75.9,29.89,West,273,0.0,0.0,100,0.00,,,0.02,Wunderground v.1.15,2013-08-29 02:35:00,
2013-08-28 22:45:00,75.8,75.8,29.88,West,273,0.0,0.0,100,0.00,,,0.02,Wunderground v.1.15,2013-08-29 02:45:00,
2013-08-28 22:50:00,75.8,75.8,29.87,West,273,0.0,0.0,100,0.00,,,0.02,Wunderground v.1.15,2013-08-29 02:50:00,
2013-08-28 22:55:00,75.7,75.7,29.88,West,273,0.0,0.0,100,0.00,,,0.02,Wunderground v.1.15,2013-08-29 02:55:00,
2013-08-28 23:00:00,75.7,75.4,29.88,West,273,0.0,0.0,99,0.00,,,0.02,Wunderground v.1.15,2013-08-29 03:00:00,
2013-08-28 23:05:00,75.7,75.4,29.88,West,273,0.0,0.0,99,0.00,,,0.02,Wunderground v.1.15,2013-08-29 03:05:00,
2013-08-28 23:15:00,75.7,75.4,29.87,West,273,0.0,0.0,99,0.00,,,0.02,Wunderground v.1.15,2013-08-29 03:15:00,
2013-08-28 23:25:00,75.7,75.4,29.87,West,273,0.0,0.0,99,0.00,,,0.02,Wunderground v.1.15,2013-08-29 03:25:00,
2013-08-28 23:30:00,75.8,75.5,29.87,West,273,0.0,0.0,99,0.00,,,0.02,Wunderground v.1.15,2013-08-29 03:30:00,
2013-08-28 23:35:00,75.8,75.5,29.87,West,273,0.0,0.0,99,0.00,,,0.02,Wunderground v.1.15,2013-08-29 03:35:00,
2013-08-28 23:40:00,75.9,75.3,29.87,West,273,0.0,0.0,98,0.00,,,0.02,Wunderground v.1.15,2013-08-29 03:40:00,
2013-08-28 23:45:00,75.9,75.3,29.87,West,273,0.0,0.0,98,0.00,,,0.02,Wunderground v.1.15,2013-08-29 03:45:00,
2013-08-28 23:50:00,75.9,75.3,29.87,West,273,0.0,0.0,98,0.00,,,0.02,Wunderground v.1.15,2013-08-29 03:50:00,